This is the latest recevied weather packets stored in our database for station/object DB0LHR-6. If no packets are shown the sender has not sent any weather packets the latest 10 day(s).
| Time | Temp. | Humidity | Pressure | Rain* | Wind** | Luminosity | Snow |
|---|---|---|---|---|---|---|---|
| 1777758375 | 17.78° C | 45% | 1016 hPa | 0 mm | - | - | - |
| 1777757475 | 17.78° C | 44% | 1016 hPa | 0 mm | - | - | - |
| 1777756575 | 18.33° C | 43% | 1016 hPa | 0 mm | - | - | - |
| 1777755675 | 18.89° C | 41% | 1016 hPa | 0 mm | - | - | - |
| 1777754775 | 19.44° C | 40% | 1016 hPa | 0 mm | - | - | - |
| 1777753875 | 19.44° C | 38% | 1016 hPa | 0 mm | - | - | - |
| 1777752975 | 20° C | 38% | 1016 hPa | 0 mm | - | - | - |
| 1777752075 | 20° C | 37% | 1016 hPa | 0 mm | - | - | - |
| 1777751176 | 20° C | 39% | 1016 hPa | 0 mm | - | - | - |
| 1777750275 | 20.56° C | 36% | 1016 hPa | 0 mm | - | - | - |
| 1777749375 | 20.56° C | 35% | 1016 hPa | 0 mm | - | - | - |
| 1777748475 | 21.11° C | 34% | 1016 hPa | 0 mm | - | - | - |
| 1777747575 | 21.67° C | 33% | 1016 hPa | 0 mm | - | - | - |
| 1777746675 | 22.78° C | 31% | 1016 hPa | 0 mm | - | - | - |
| 1777745775 | 23.33° C | 28% | 1015 hPa | 0 mm | - | - | - |
| 1777744875 | 23.89° C | 22% | 1016 hPa | 0 mm | - | - | - |
| 1777743975 | 24.44° C | 21% | 1015 hPa | 0 mm | - | - | - |
| 1777743075 | 25.56° C | 20% | 1015 hPa | 0 mm | - | - | - |
| 1777742175 | 25.56° C | 20% | 1016 hPa | 0 mm | - | - | - |
| 1777741275 | 26.11° C | 20% | 1016 hPa | 0 mm | - | - | - |
| 1777740375 | 26.11° C | 20% | 1016 hPa | 0 mm | - | - | - |
| 1777739475 | 26.67° C | 17% | 1016 hPa | 0 mm | - | - | - |
| 1777738575 | 27.78° C | 16% | 1016 hPa | 0 mm | - | - | - |
| 1777737675 | 27.78° C | 16% | 1016 hPa | 0 mm | - | - | - |
| 1777736775 | 28.33° C | 13% | 1016 hPa | 0 mm | - | - | - |
* Rain latest 24 hours (hover to see other rain measurements)
** Current wind speed in m/s (hover to see current wind gust speed)